Terminal Aerodrome Forecast
Issued by NWS Denver/Boulder, CO

Home | Current Version | Previous Version | Text Only | Print | Product List | Glossary On
Versions: 1 2 3 4 5 6 7 8 9 10 11 12 13 14 15 16 17 18 19 20 21 22 23 24 25 26 27 28 29 30 31 32 33 34 35 36 37 38 39 40 41 42 43 44 45 46 47 48 49 50
000
FTUS45 KBOU 010125 AAB
TAFDEN
TAF AMD
KDEN 010125Z 0101/0206 15007KT P6SM SCT100 BKN150
     FM010200 03011KT P6SM FEW090 BKN140 BKN200
     FM010300 11008KT P6SM FEW100 BKN150
     FM010500 22009KT P6SM SCT120 BKN200
     FM011500 25007KT P6SM FEW120 SCT200
     FM011800 VRB05KT P6SM SCT090 BKN200
     FM012200 26011KT P6SM VCSH SCT090 BKN150=

USA.gov is the U.S. government's official web portal to all federal, state and local government web resources and services.